FW8688 Weather Reports


time (UTC)temp
C
wind
direction
speed
KPH
gust
KPH
rain 1hr
cm
rain 24hr
cm
rain mn
cm
humidity
%
barometer
mb
20260508173304 22 194 1.6 11.3 0.00 0.00 0.00 30 1014.0
20260508172307 21 55 8.0 22.5 0.00 0.00 0.00 34 1014.0
20260508171805 21 130 6.4 9.7 0.00 0.00 0.00 37 1014.0
20260508171304 21 255 3.2 8.0 0.00 0.00 0.00 35 1014.0
20260508170804 21 177 1.6 4.8 0.00 0.00 0.00 37 1014.1
20260508165804 20 209 4.8 8.0 0.00 0.00 0.00 38 1014.0
20260508165306 20 201 4.8 11.3 0.00 0.00 0.00 40 1014.0
20260508164804 20 160 3.2 8.0 0.00 0.00 0.00 39 1014.1
20260508163804 19 176 3.2 8.0 0.00 0.00 0.00 41 1014.1
20260508163305 19 135 4.8 8.0 0.00 0.00 0.00 42 1014.1
20260508162306 18 175 4.8 8.0 0.00 0.00 0.00 43 1014.1
20260508161804 18 170 4.8 9.7 0.00 0.00 0.00 44 1014.1
20260508161304 18 216 6.4 9.7 0.00 0.00 0.00 44 1014.1
20260508160804 18 187 4.8 9.7 0.00 0.00 0.00 44 1014.1
20260508155804 18 160 4.8 8.0 0.00 0.00 0.00 44 1014.1
20260508155306 17 159 4.8 8.0 0.00 0.00 0.00 45 1013.9
20260508154804 17 169 3.2 4.8 0.00 0.00 0.00 47 1013.9
20260508154304 17 162 0.0 4.8 0.00 0.00 0.00 48 1013.9
20260508153804 17 166 4.8 4.8 0.00 0.00 0.00 48 1013.9
20260508153304 17 183 3.2 4.8 0.00 0.00 0.00 49 1013.9
20260508152306 16 176 4.8 4.8 0.00 0.00 0.00 51 1013.9
20260508151804 16 169 3.2 4.8 0.00 0.00 0.00 51 1013.8
20260508151305 16 165 3.2 8.0 0.00 0.00 0.00 51 1013.8
20260508150804 16 172 1.6 4.8 0.00 0.00 0.00 53 1013.8
20260508145804 16 180 3.2 4.8 0.00 0.00 0.00 53 1013.8
20260508145306 16 180 1.6 4.8 0.00 0.00 0.00 54 1013.7
20260508144804 16 155 1.6 3.2 0.00 0.00 0.00 55 1013.8
20260508144304 15 164 1.6 3.2 0.00 0.00 0.00 57 1013.9
20260508143804 15 135 0.0 0.0 0.00 0.00 0.00 59 1013.9
20260508142306 13 59 0.0 0.0 0.00 0.00 0.00 61 1013.8
20260508141804 13 59 0.0 0.0 0.00 0.00 0.00 62 1013.8
20260508141304 13 59 0.0 0.0 0.00 0.00 0.00 64 1013.8
20260508140804 12 59 0.0 0.0 0.00 0.00 0.00 66 1013.8
20260508140304 12 59 0.0 0.0 0.00 0.00 0.00 67 1013.8
20260508135804 12 59 0.0 0.0 0.00 0.00 0.00 67 1013.6
20260508135306 11 59 0.0 0.0 0.00 0.00 0.00 67 1013.6
20260508134304 11 59 1.6 3.2 0.00 0.00 0.00 69 1013.5
20260508133804 10 59 0.0 0.0 0.00 0.00 0.00 69 1013.5
20260508132306 9 59 0.0 0.0 0.00 0.00 0.00 69 1013.3
20260508131804 9 59 0.0 0.0 0.00 0.00 0.00 69 1013.2
20260508131304 9 59 0.0 0.0 0.00 0.00 0.00 69 1013.1
20260508130804 9 59 0.0 0.0 0.00 0.00 0.00 69 1013.1
20260508130304 9 59 0.0 0.0 0.00 0.00 0.00 68 1013.1
20260508125805 9 59 0.0 0.0 0.00 0.00 0.00 68 1013.0
20260508125306 9 59 0.0 0.0 0.00 0.00 0.00 68 1013.0
20260508124804 9 59 0.0 0.0 0.00 0.00 0.00 67 1012.8
20260508124304 9 59 0.0 0.0 0.00 0.00 0.00 67 1012.8
20260508123804 9 59 0.0 0.0 0.00 0.00 0.00 66 1012.8
20260508123304 9 59 0.0 0.0 0.00 0.00 0.00 66 1012.5
20260508122804 9 59 1.6 3.2 0.00 0.00 0.00 66 1012.5
20260508122307 9 40 0.0 0.0 0.00 0.00 0.00 66 1012.5
20260508121804 9 40 0.0 0.0 0.00 0.00 0.00 65 1012.5
20260508121304 10 40 0.0 0.0 0.00 0.00 0.00 65 1012.4
20260508120804 10 40 0.0 0.0 0.00 0.00 0.00 64 1012.4
20260508120304 10 40 0.0 0.0 0.00 0.00 0.00 65 1012.4
20260508115804 10 40 0.0 0.0 0.00 0.00 0.00 65 1012.3
20260508115306 10 40 0.0 1.6 0.00 0.00 0.00 64 1012.3
20260508114804 10 40 1.6 4.8 0.00 0.00 0.00 65 1012.3
20260508114304 10 52 1.6 3.2 0.00 0.00 0.00 64 1012.3
20260508113304 10 132 0.0 0.0 0.00 0.00 0.00 64 1012.0
20260508112804 10 132 0.0 0.0 0.00 0.00 0.00 63 1012.0
20260508111804 10 132 0.0 3.2 0.00 0.00 0.00 63 1012.0
20260508111304 10 132 0.0 0.0 0.00 0.00 0.00 63 1012.0
20260508110804 10 132 0.0 0.0 0.00 0.00 0.00 63 1012.0
20260508110304 10 132 0.0 3.2 0.00 0.00 0.00 63 1011.9
20260508105804 10 133 3.2 4.8 0.00 0.00 0.00 63 1011.9
20260508104804 10 167 0.0 4.8 0.00 0.00 0.00 62 1011.8
20260508104304 11 325 0.0 1.6 0.00 0.00 0.00 62 1011.8
20260508103804 10 325 3.2 4.8 0.00 0.00 0.00 62 1011.8
20260508102306 11 207 0.0 3.2 0.00 0.00 0.00 60 1011.7
20260508101804 11 214 4.8 4.8 0.00 0.00 0.00 59 1011.7
20260508101304 11 336 0.0 3.2 0.00 0.00 0.00 57 1011.7
20260508100304 12 26 1.6 4.8 0.00 0.00 0.00 56 1011.6
20260508095804 12 174 1.6 4.8 0.00 0.00 0.00 56 1011.7
20260508095306 12 106 0.0 4.8 0.00 0.00 0.00 55 1011.7
20260508094304 12 105 1.6 4.8 0.00 0.00 0.00 54 1011.7
20260508093804 12 14 3.2 8.0 0.00 0.00 0.00 53 1011.6
20260508093304 12 12 4.8 8.0 0.00 0.00 0.00 55 1011.6
20260508092804 11 352 4.8 8.0 0.00 0.00 0.00 57 1011.3
20260508092312 11 354 4.8 8.0 0.00 0.00 0.00 58 1011.4
20260508091803 11 323 3.2 4.8 0.00 0.00 0.00 57 1011.6
20260508091304 12 37 0.0 0.0 0.00 0.00 0.00 56 1011.6
20260508090804 12 55 0.0 0.0 0.00 0.00 0.00 56 1011.6
20260508090304 12 55 0.0 1.6 0.00 0.00 0.00 55 1011.6
20260508084804 12 49 1.6 3.2 0.00 0.00 0.00 53 1011.3
20260508084303 12 49 3.2 4.8 0.00 0.00 0.00 55 1011.3
20260508083804 12 49 3.2 4.8 0.00 0.00 0.00 56 1011.4
20260508082804 12 63 1.6 3.2 0.00 0.00 0.00 56 1011.3
20260508082306 12 49 1.6 3.2 0.00 0.00 0.00 55 1011.3
20260508081804 12 296 0.0 0.0 0.00 0.00 0.00 55 1011.3
20260508081304 12 296 0.0 0.0 0.00 0.00 0.00 55 1011.4
20260508080804 12 296 0.0 0.0 0.00 0.00 0.00 54 1011.4
20260508080304 12 296 0.0 0.0 0.00 0.00 0.00 54 1011.4
20260508075308 12 296 1.6 3.2 0.00 0.00 0.00 55 1011.4
20260508074804 12 278 1.6 3.2 0.00 0.00 0.00 54 1011.4
20260508074304 13 236 3.2 4.8 0.00 0.00 0.00 53 1011.4
20260508073804 13 77 1.6 3.2 0.00 0.00 0.00 52 1011.4
20260508073304 13 78 4.8 8.0 0.00 0.00 0.00 51 1011.4
20260508072804 13 30 3.2 4.8 0.00 0.00 0.00 51 1011.4
20260508072307 13 30 1.6 3.2 0.00 0.00 0.00 51 1011.4
20260508071804 13 30 0.0 0.0 0.00 0.00 0.00 52 1011.4
20260508071304 13 30 0.0 3.2 0.00 0.00 0.00 52 1011.4
20260508070304 13 26 3.2 4.8 0.00 0.00 0.00 52 1011.4
20260508065306 13 19 0.0 4.8 0.00 0.00 0.00 52 1011.4
20260508064303 13 6 3.2 4.8 0.00 0.00 0.00 52 1011.4
20260508063804 13 5 0.0 3.2 0.00 0.00 0.00 52 1011.3
20260508063304 13 5 0.0 4.8 0.00 0.00 0.00 52 1011.2
20260508062804 13 21 1.6 4.8 0.00 0.00 0.00 51 1011.2
20260508061804 14 80 0.0 0.0 0.00 0.00 0.00 50 1011.1
20260508061304 14 80 0.0 0.0 0.00 0.00 0.00 50 1011.1
20260508060804 14 80 0.0 0.0 0.00 0.00 0.00 50 1011.1
20260508055804 14 80 0.0 0.0 0.00 0.00 0.00 50 1011.1
20260508055306 15 80 0.0 0.0 0.00 0.00 0.00 49 1010.7
20260508054304 15 80 0.0 0.0 0.00 0.00 0.00 47 1010.7
20260508053804 15 80 0.0 0.0 0.00 0.00 0.00 46 1010.7
20260508053304 15 80 0.0 0.0 0.00 0.00 0.00 46 1010.6
20260508052804 15 80 0.0 0.0 0.00 0.00 0.00 44 1010.6
20260508052306 15 80 0.0 0.0 0.00 0.00 0.00 44 1010.6
20260508051804 15 80 0.0 0.0 0.00 0.00 0.00 43 1010.9
20260508051304 15 80 0.0 3.2 0.00 0.00 0.00 43 1010.9
20260508050803 16 80 1.6 3.2 0.00 0.00 0.00 43 1010.9
20260508050303 16 98 1.6 3.2 0.00 0.00 0.00 43 1010.9
20260508045804 16 98 0.0 3.2 0.00 0.00 0.00 43 1010.6
20260508045306 16 95 3.2 4.8 0.00 0.00 0.00 43 1010.6
20260508044805 16 99 3.2 4.8 0.00 0.00 0.00 43 1010.6
20260508044306 16 95 3.2 4.8 0.00 0.00 0.00 43 1010.8
20260508043806 16 63 3.2 4.8 0.00 0.00 0.00 44 1010.8
20260508043305 17 63 0.0 3.2 0.00 0.00 0.00 45 1010.7
20260508042307 17 345 0.0 0.0 0.00 0.00 0.00 42 1010.8
20260508041806 17 345 0.0 1.6 0.00 0.00 0.00 41 1010.8
20260508041306 18 345 1.6 1.6 0.00 0.00 0.00 41 1010.8
20260508040805 18 345 0.0 0.0 0.00 0.00 0.00 39 1010.8
20260508035805 18 345 0.0 1.6 0.00 0.00 0.00 40 1010.6
20260508035306 18 345 0.0 1.6 0.00 0.00 0.00 38 1010.6
20260508034805 18 345 1.6 3.2 0.00 0.00 0.00 37 1010.5
20260508034305 18 345 0.0 1.6 0.00 0.00 0.00 37 1010.5
20260508033805 19 345 1.6 3.2 0.00 0.00 0.00 36 1010.3
20260508033305 19 345 1.6 3.2 0.00 0.00 0.00 36 1010.4
20260508032805 19 345 0.0 1.6 0.00 0.00 0.00 36 1010.4
20260508032306 19 345 1.6 3.2 0.00 0.00 0.00 36 1010.4
20260508031806 20 345 1.6 1.6 0.00 0.00 0.00 36 1010.4
20260508031305 20 345 0.0 0.0 0.00 0.00 0.00 35 1010.2
20260508030805 20 345 0.0 3.2 0.00 0.00 0.00 34 1010.2
20260508030305 21 345 1.6 3.2 0.00 0.00 0.00 34 1010.2
20260508025806 21 345 0.0 1.6 0.00 0.00 0.00 33 1010.1
20260508024805 21 192 0.0 0.0 0.00 0.00 0.00 33 1010.2
20260508024306 21 192 0.0 0.0 0.00 0.00 0.00 31 1010.0
20260508022805 21 192 1.6 3.2 0.00 0.00 0.00 30 1010.0
20260508021805 22 231 1.6 4.8 0.00 0.00 0.00 28 1010.0
20260508021305 23 188 3.2 4.8 0.00 0.00 0.00 28 1010.0
20260508020805 23 155 0.0 0.0 0.00 0.00 0.00 27 1010.0
20260508020305 23 155 1.6 3.2 0.00 0.00 0.00 27 1010.0
20260508015805 23 155 1.6 4.8 0.00 0.00 0.00 27 1010.1
20260508015306 23 323 0.0 0.0 0.00 0.00 0.00 26 1009.8
20260508014805 24 323 0.0 1.6 0.00 0.00 0.00 23 1009.7
20260508013805 23 323 1.6 4.8 0.00 0.00 0.00 23 1009.7
20260508013305 23 302 3.2 4.8 0.00 0.00 0.00 23 1009.7
20260508011306 23 313 0.0 3.2 0.00 0.00 0.00 24 1010.0
20260508010805 23 313 3.2 4.8 0.00 0.00 0.00 24 1010.0
20260508010305 23 291 3.2 4.8 0.00 0.00 0.00 24 1010.0
20260508005805 23 260 1.6 3.2 0.00 0.00 0.00 24 1010.0
20260508004305 23 256 3.2 4.8 0.00 0.00 0.00 23 1010.0
20260508003806 23 278 1.6 3.2 0.00 0.00 0.00 23 1010.3
20260508003305 23 355 1.6 4.8 0.00 0.00 0.00 22 1010.3
20260508002307 23 358 8.0 11.3 0.00 0.00 0.00 23 1010.3
20260508001805 24 334 4.8 8.0 0.00 0.00 0.00 23 1010.6
20260508001305 24 355 3.2 4.8 0.00 0.00 0.00 23 1010.6
20260508000805 23 67 3.2 4.8 0.00 0.00 0.00 23 1010.6
20260508000305 24 10 8.0 14.5 0.00 0.00 0.00 22 1010.6
20260507235307 24 81 6.4 11.3 0.00 0.00 0.00 22 1010.5
20260507234806 24 10 4.8 11.3 0.00 0.00 0.00 22 1010.5
20260507233805 24 15 8.0 19.3 0.00 0.00 0.00 23 1010.6
20260507232307 24 6 8.0 19.3 0.00 0.00 0.00 22 1010.8
20260507231805 24 356 4.8 14.5 0.00 0.00 0.00 23 1010.8
20260507231305 24 34 11.3 19.3 0.00 0.00 0.00 22 1010.9
20260507230805 24 353 11.3 19.3 0.00 0.00 0.00 22 1010.8
20260507230305 24 329 11.3 19.3 0.00 0.00 0.00 22 1010.9
20260507225805 24 57 1.6 11.3 0.00 0.00 0.00 22 1010.9
20260507225306 25 20 11.3 14.5 0.00 0.00 0.00 21 1011.1
20260507224805 25 347 4.8 8.0 0.00 0.00 0.00 21 1011.1
20260507223805 25 300 4.8 11.3 0.00 0.00 0.00 22 1011.3
20260507223305 24 304 4.8 16.1 0.00 0.00 0.00 22 1011.4
20260507222306 24 280 6.4 11.3 0.00 0.00 0.00 22 1011.4
20260507221805 24 169 8.0 14.5 0.00 0.00 0.00 21 1011.5
20260507221305 25 178 4.8 9.7 0.00 0.00 0.00 21 1011.8
20260507220306 25 272 8.0 16.1 0.00 0.00 0.00 21 1011.9
20260507215805 25 313 11.3 19.3 0.00 0.00 0.00 21 1011.9
20260507215307 25 261 8.0 12.9 0.00 0.00 0.00 20 1011.7
20260507214805 25 341 1.6 9.7 0.00 0.00 0.00 20 1011.7
20260507214305 25 329 4.8 9.7 0.00 0.00 0.00 21 1011.8
20260507213805 24 46 3.2 8.0 0.00 0.00 0.00 22 1011.9
20260507213305 24 21 4.8 8.0 0.00 0.00 0.00 22 1012.2
20260507212805 24 112 3.2 9.7 0.00 0.00 0.00 21 1012.2
20260507212307 23 145 4.8 8.0 0.00 0.00 0.00 23 1012.2
20260507211305 23 180 11.3 16.1 0.00 0.00 0.00 23 1012.5
20260507210805 23 196 8.0 14.5 0.00 0.00 0.00 22 1012.6
20260507210305 23 170 6.4 9.7 0.00 0.00 0.00 22 1012.6
20260507205805 23 144 8.0 12.9 0.00 0.00 0.00 22 1012.7
20260507204805 23 156 6.4 16.1 0.00 0.00 0.00 23 1012.9
20260507204305 23 167 9.7 14.5 0.00 0.00 0.00 22 1012.9
20260507203805 23 134 6.4 14.5 0.00 0.00 0.00 23 1013.0
20260507202805 23 160 9.7 16.1 0.00 0.00 0.00 24 1013.2
20260507202307 22 158 9.7 14.5 0.00 0.00 0.00 23 1013.3
20260507201805 22 110 9.7 12.9 0.00 0.00 0.00 23 1013.4
20260507201305 22 169 9.7 16.1 0.00 0.00 0.00 23 1013.6
20260507200805 22 125 9.7 16.1 0.00 0.00 0.00 24 1013.6
20260507200305 22 168 8.0 16.1 0.00 0.00 0.00 24 1013.4
20260507195804 21 183 4.8 11.3 0.00 0.00 0.00 24 1013.4
20260507195306 21 132 9.7 16.1 0.00 0.00 0.00 23 1013.4
20260507194805 21 142 8.0 12.9 0.00 0.00 0.00 23 1013.6
20260507194305 21 138 8.0 14.5 0.00 0.00 0.00 23 1013.7
20260507193805 21 122 8.0 12.9 0.00 0.00 0.00 23 1013.8
20260507193305 21 158 9.7 16.1 0.00 0.00 0.00 23 1013.9
20260507192805 21 140 8.0 14.5 0.00 0.00 0.00 24 1013.9
20260507192306 21 125 8.0 14.5 0.00 0.00 0.00 25 1014.1
20260507191805 21 160 8.0 19.3 0.00 0.00 0.00 24 1014.1
20260507191305 20 118 9.7 19.3 0.00 0.00 0.00 24 1014.4
20260507190805 20 127 9.7 14.5 0.00 0.00 0.00 23 1014.4
20260507185805 21 129 9.7 16.1 0.00 0.00 0.00 24 1014.4
20260507185306 21 142 6.4 19.3 0.00 0.00 0.00 25 1014.4
20260507184805 20 162 8.0 14.5 0.00 0.00 0.00 24 1014.6
20260507183804 20 121 9.7 19.3 0.00 0.00 0.00 24 1014.6
20260507183305 20 153 9.7 14.5 0.00 0.00 0.00 25 1014.8
20260507182805 20 130 9.7 14.5 0.00 0.00 0.00 25 1014.8
20260507182307 19 157 4.8 11.3 0.00 0.00 0.00 27 1014.8
20260507181805 18 100 6.4 11.3 0.00 0.00 0.00 27 1014.8
20260507181305 18 163 4.8 11.3 0.00 0.00 0.00 29 1015.0
20260507180805 18 180 8.0 11.3 0.00 0.00 0.00 28 1015.0
20260507180304 18 166 4.8 9.7 0.00 0.00 0.00 29 1015.1
20260507175805 18 181 3.2 9.7 0.00 0.00 0.00 31 1015.3
20260507175307 18 188 3.2 11.3 0.00 0.00 0.00 32 1015.6
20260507174805 17 189 8.0 11.3 0.00 0.00 0.00 32 1015.6